Temperature
20 20 20 20 17 14 16 15 13 12 12 11 12 12 11 10 10 11 11 10 9 9 9 8 8 8 8 8 7 7 6 6 5 5 4 4 4 4 4 4 4 4 4 4 4 4 5 5 5
20 20 20 20 15 16 16 15 12 12 12 11 11 11 11 10 11 11 10 9 9 9 9 9 8 8 8 8 7 6 6 5 5 5 4 4 4 4 3 3 3 3 3 3 3 4 4 4 4
20 20 20 15 16 16 17 14 12 11 11 12 11 11 11 11 11 11 11 10 9 9 9 8 8 8 8 7 7 6 5 5 5 4 4 4 3 3 3 3 3 3 3 3 3 3 3 4 4
20 20 19 15 17 15 14 13 11 10 10 11 11 10 11 11 11 11 10 10 9 9 8 8 8 8 8 7 7 6 6 5 5 5 5 4 4 4 3 3 3 2 2 2 2 2 3 3 4
20 20 15 15 16 14 12 12 11 10 11 11 11 10 11 11 11 11 10 10 9 9 8 8 8 8 8 7 7 6 6 5 5 5 5 5 4 4 4 3 2 2 2 2 2 2 3 3 4
20 17 15 16 16 14 12 12 11 11 10 10 11 11 11 12 11 10 10 9 9 8 8 8 7 8 7 7 7 6 6 6 5 5 5 5 5 4 4 3 3 3 3 3 3 3 3 4 4
20 14 16 16 14 14 12 12 12 11 10 12 12 11 11 12 11 10 9 9 8 8 8 8 8 8 7 7 7 7 6 6 6 6 5 5 5 4 4 4 3 3 3 3 3 4 4 4 3
19 13 15 13 13 14 13 13 13 13 12 13 13 12 13 13 11 9 8 8 8 8 8 8 8 8 7 7 7 7 7 6 6 5 5 5 4 4 4 4 3 3 3 3 3 3 3 3 3
18 14 14 14 12 14 13 12 13 13 13 12 13 13 13 13 11 10 9 8 8 8 8 7 7 7 7 7 7 7 6 6 6 5 5 5 4 4 4 4 3 3 3 3 3 3 2 2 2
17 14 15 14 13 13 12 12 13 12 11 11 12 13 13 13 12 12 11 11 10 9 8 8 7 7 7 7 7 6 6 6 5 5 5 4 4 4 4 3 3 3 3 3 2 2 2 1 1
15 15 14 14 14 14 12 12 12 11 9 12 14 15 13 12 12 12 12 12 11 10 9 8 8 7 7 7 7 6 6 6 5 5 5 4 4 4 3 3 3 3 2 2 2 1 0 -0 -1
14 13 13 13 13 13 13 12 11 11 14 15 15 14 14 13 13 13 13 13 11 10 9 8 8 7 7 7 6 6 6 6 5 5 5 4 4 3 3 3 2 2 2 1 1 0 -1 -1 -2
13 13 13 13 13 13 12 11 11 13 15 14 14 14 14 14 14 14 13 12 11 10 9 8 8 7 7 7 6 6 6 6 5 5 5 4 4 3 3 2 2 1 1 0 -0 -1 -2 -3 -3
12 12 12 12 13 12 12 12 11 14 15 14 14 14 14 14 14 14 13 12 12 11 10 9 8 7 7 7 6 6 6 5 5 5 4 4 3 3 2 2 1 1 0 -0 -1 -2 -3 -4 -4
12 12 12 12 12 12 12 11 10 15 15 15 15 14 14 14 14 14 14 13 13 12 10 9 8 7 7 7 6 6 6 5 5 5 4 4 3 3 2 1 1 0 -0 -1 -2 -3 -3 -4 -5
13 13 13 13 12 11 12 12 13 16 14 14 14 14 14 14 14 14 14 13 12 11 10 9 8 8 7 7 6 6 5 5 5 4 4 3 3 2 2 1 1 -0 -1 -2 -2 -3 -3 -4 -5
13 13 14 13 11 10 10 11 11 14 13 13 14 15 15 14 14 14 14 13 12 11 10 9 9 8 8 7 6 5 5 5 5 4 4 3 3 2 2 1 0 -0 -1 -2 -3 -3 -4 -4 -5
15 14 13 13 12 9 8 9 11 13 12 12 14 15 15 15 16 16 14 13 12 11 10 9 9 8 7 6 6 5 5 5 5 4 4 3 3 2 1 1 0 -0 -1 -2 -3 -3 -4 -5 -6
15 14 13 12 12 9 8 10 12 13 11 10 11 13 14 16 17 16 15 14 12 12 11 10 9 8 7 7 6 6 6 5 5 4 4 3 3 2 1 1 0 -1 -1 -2 -3 -3 -4 -4 -6
13 13 12 12 11 10 9 9 12 11 11 11 11 12 15 17 17 16 15 14 13 13 12 11 10 10 9 8 7 6 6 5 4 4 3 3 3 2 1 1 0 -1 -1 -2 -3 -4 -4 -4 -6
13 13 13 13 13 11 9 11 11 11 11 11 12 13 15 16 18 18 17 16 15 14 14 13 13 11 10 9 7 6 5 5 4 4 4 3 3 2 1 1 -0 -1 -1 -2 -3 -4 -5 -5 -6
12 13 13 13 12 10 11 11 13 12 10 10 13 14 17 19 19 19 18 17 16 16 15 14 14 12 11 10 8 7 6 6 6 5 4 3 2 2 1 1 -0 -1 -1 -2 -3 -4 -5 -6 -6
13 13 13 12 11 10 9 10 12 11 12 13 13 17 19 20 20 20 19 19 18 17 16 15 14 13 12 11 10 8 7 7 6 5 4 3 2 2 1 0 -0 -1 -1 -2 -3 -4 -5 -6 -7
13 12 10 8 8 10 10 9 11 12 13 13 14 17 19 20 20 20 20 19 19 18 17 16 15 14 13 12 11 9 8 7 6 5 4 3 3 2 1 0 -0 -1 -1 -2 -3 -4 -5 -6 -7
13 12 11 12 11 11 10 9 11 13 12 12 13 16 18 19 20 20 20 20 19 19 18 17 16 16 14 13 12 11 10 8 7 5 4 4 3 2 1 0 -0 -1 -2 -2 -3 -4 -5 -6 -6
12 12 12 13 12 10 10 9 12 13 13 14 14 16 18 20 20 20 20 20 19 19 18 18 17 16 15 14 13 12 10 8 7 6 5 4 3 2 1 0 -0 -1 -2 -2 -3 -4 -4 -5 -6
12 11 11 10 10 9 9 10 11 13 14 14 15 16 19 20 20 20 20 20 19 19 18 18 17 16 16 15 14 12 11 9 8 7 5 4 3 2 1 0 -0 -1 -2 -2 -3 -4 -4 -5 -6
12 10 8 10 11 10 10 10 12 14 15 14 13 15 18 19 19 19 19 19 19 18 18 17 17 16 15 14 14 13 12 10 8 7 5 4 3 2 1 0 -0 -1 -2 -2 -3 -3 -4 -5 -6
10 10 10 9 8 9 9 11 12 13 13 13 13 16 17 18 18 18 18 18 18 18 17 17 17 16 16 15 14 13 12 10 9 7 5 4 3 2 1 0 -0 -1 -2 -2 -3 -3 -4 -5 -6
10 10 9 10 10 7 7 11 13 12 11 11 12 15 17 17 17 17 17 17 17 17 17 17 16 16 15 14 14 13 11 10 9 7 6 4 3 2 1 0 -1 -1 -1 -2 -3 -3 -4 -5 -6
Wind_Speed
3 3 3 4 6 6 0 3 5 5 4 2 3 4 7 7 6 4 2 6 9 9 8 9 10 9 8 8 8 9 9 11 12 13 14 15 16 17 18 19 20 21 22 23 24 25 26 26 27
1 3 5 5 5 2 5 4 6 5 6 6 4 3 4 4 2 4 5 7 11 11 11 9 11 10 8 8 8 8 9 10 11 12 13 14 15 16 17 18 19 20 20 21 22 23 24 25 26
2 5 5 5 4 4 4 3 6 4 6 5 4 1 3 4 5 7 6 12 12 12 12 9 12 10 9 8 7 7 8 9 11 12 13 13 14 15 16 16 17 18 19 20 21 22 23 24 25
3 5 6 5 2 3 3 2 6 8 4 3 5 3 3 2 6 7 8 14 12 11 11 9 12 10 9 8 7 7 8 9 10 11 12 12 13 14 14 15 16 17 17 18 19 20 21 22 24
5 5 5 3 3 3 3 3 9 8 8 5 6 4 4 2 5 8 10 13 11 10 10 8 12 11 9 8 7 7 7 8 9 10 11 12 12 13 13 14 14 15 16 17 18 19 21 22 23
5 5 3 4 6 3 3 5 8 6 5 5 7 4 5 4 8 10 10 11 14 13 10 7 12 11 9 8 7 7 7 8 9 10 10 11 11 12 12 13 13 14 15 16 18 19 20 21 22
5 5 4 5 4 5 5 7 7 7 6 8 8 6 4 5 8 10 9 11 12 13 11 7 8 9 9 7 8 7 7 8 8 9 10 10 11 11 12 12 13 13 14 16 17 19 20 21 21
5 6 3 3 5 7 6 8 5 9 7 4 9 8 6 7 9 9 8 7 8 9 11 10 10 10 9 7 7 8 7 8 8 8 9 10 10 10 11 11 12 13 14 15 16 18 19 19 20
4 4 5 7 8 7 6 7 4 4 6 4 5 5 0 11 13 10 7 5 6 7 8 11 11 11 11 9 8 8 8 8 8 8 8 9 9 9 9 10 11 12 13 14 15 17 18 18 19
4 4 8 5 6 5 7 8 8 5 4 6 6 4 6 13 16 16 14 13 12 11 8 11 13 14 13 11 10 10 9 9 9 8 8 8 8 7 7 9 10 11 12 13 14 15 16 17 18
2 5 3 1 2 3 7 6 7 8 11 13 11 9 11 14 17 18 17 14 13 10 9 11 15 16 15 13 12 12 11 10 10 9 9 8 7 5 6 7 8 9 10 11 12 14 14 14 15
2 1 2 4 1 4 7 6 6 10 12 7 10 11 13 20 22 22 21 15 12 10 11 10 17 16 16 16 14 14 13 12 11 11 10 9 7 5 3 3 4 6 7 8 9 10 11 12 13
1 2 2 2 1 2 4 5 6 10 11 4 7 12 16 21 21 20 15 13 12 14 14 12 17 17 17 16 14 14 15 14 14 13 13 11 9 7 4 2 1 2 4 5 6 7 9 10 12
1 1 3 2 0 2 3 4 5 13 7 8 10 13 17 20 21 16 15 16 18 17 16 13 15 19 18 16 15 15 17 16 15 15 15 14 11 9 7 4 3 3 3 4 6 7 8 10 11
1 3 5 3 2 1 0 9 11 11 6 9 11 12 14 17 17 21 20 20 19 16 15 15 15 18 18 17 17 16 18 17 16 16 16 15 14 12 9 7 6 6 6 6 7 9 9 8 9
2 4 5 4 5 2 3 12 13 6 10 13 12 12 13 15 16 18 17 16 15 14 15 16 16 16 17 17 17 16 18 18 17 17 17 17 16 14 12 9 9 9 8 7 7 7 4 5 5
3 4 5 7 5 4 6 13 10 3 8 13 12 12 14 14 15 17 16 17 16 17 16 17 15 15 16 17 16 16 17 17 18 18 18 18 18 17 14 12 11 10 8 8 7 5 4 5 6
5 5 6 8 4 6 8 17 20 8 10 14 13 12 13 17 21 17 16 15 15 15 16 17 17 14 13 13 10 9 9 13 16 17 18 19 18 18 16 13 13 11 8 6 6 5 5 5 6
3 5 9 9 5 7 13 21 26 16 11 16 17 15 16 20 15 11 14 14 13 15 17 18 18 15 12 7 7 6 6 6 8 16 19 20 19 19 17 12 12 11 7 6 6 4 5 4 4
5 6 9 8 3 6 9 17 21 15 12 17 18 17 18 15 11 12 13 16 19 19 19 19 20 18 17 13 8 5 5 5 7 13 17 20 20 19 16 15 11 11 7 6 6 5 3 4 3
6 7 8 7 5 4 8 12 10 8 6 8 11 12 12 16 16 13 14 17 18 20 22 20 21 20 18 14 7 4 3 2 5 7 9 17 20 20 18 16 14 12 9 7 7 7 6 5 4
7 7 6 4 4 6 4 9 12 8 10 9 11 11 14 15 14 13 14 15 20 22 19 19 19 19 17 16 15 14 13 12 11 8 9 12 19 19 19 17 16 13 11 7 8 7 6 6 5
7 1 0 2 2 5 3 5 12 8 10 11 10 11 13 13 14 15 17 19 19 17 16 17 17 18 18 19 20 19 17 12 6 6 9 10 12 17 18 17 16 13 11 10 9 7 7 6 6
3 4 4 5 3 5 5 6 9 7 9 9 9 9 10 10 11 13 13 12 12 12 14 15 17 19 18 20 20 21 20 14 10 10 11 10 8 10 15 16 15 14 12 11 10 9 8 8 8
3 4 5 6 3 6 3 5 11 15 10 10 13 13 11 9 9 11 11 13 13 14 16 16 18 19 19 20 22 22 21 18 18 16 14 12 9 9 12 14 13 12 14 14 13 8 9 9 9
4 6 4 4 6 7 3 8 10 14 10 10 11 12 12 11 9 10 11 12 12 13 15 16 19 20 19 21 21 19 17 15 14 15 13 14 12 12 11 14 14 14 14 13 12 8 9 8 10
4 4 4 3 4 5 8 9 12 11 9 7 8 9 11 12 11 11 10 10 11 12 15 17 18 18 18 20 18 18 18 18 16 14 14 11 10 10 12 13 12 12 13 12 10 8 9 8 9
3 6 5 2 4 6 8 7 6 11 13 12 12 12 12 11 11 11 10 9 9 10 11 12 15 17 16 16 17 16 18 18 15 13 15 14 13 11 12 12 11 11 11 11 9 9 9 10 10
5 4 4 3 3 4 6 8 8 10 12 12 14 13 12 13 13 12 10 8 8 8 9 12 13 14 14 16 16 16 16 16 15 16 16 15 13 14 13 12 12 11 11 10 10 10 9 10 11
7 7 8 4 6 6 5 11 12 12 12 11 13 13 13 13 13 12 10 8 6 8 9 10 12 14 14 14 15 16 15 15 17 18 17 15 15 14 14 13 12 12 11 10 11 11 11 11 12
Wind_Direction
79 63 63 55 55 52 151 215 168 155 165 124 108 136 162 172 175 193 123 170 142 136 125 128 131 120 107 93 80 70 62 55 50 46 43 41 40 38 35 34 32 31 30 29 28 27 27 25 24
82 48 54 58 82 37 276 204 184 192 155 135 111 117 138 190 182 136 160 187 154 137 128 130 137 128 117 104 89 77 68 60 54 50 45 42 41 39 35 34 32 31 30 29 28 27 26 24 23
80 49 76 73 108 188 248 198 180 116 140 144 128 141 199 203 189 184 196 168 152 141 140 151 142 135 126 113 99 85 75 66 60 54 48 44 43 41 36 34 32 31 29 28 28 27 26 24 22
76 46 54 73 182 215 245 211 153 133 163 155 151 196 247 226 184 186 159 158 146 147 150 164 149 143 135 125 111 96 82 73 66 60 52 46 44 42 36 34 32 31 29 28 28 27 26 24 21
58 74 57 28 265 260 247 206 158 163 184 179 173 198 240 192 147 145 149 158 152 154 156 167 157 153 146 137 124 108 94 82 73 67 57 49 46 43 36 34 33 31 30 28 27 26 25 23 20
57 68 85 265 265 271 240 174 158 173 172 171 180 199 233 159 151 161 159 165 162 158 158 160 166 159 154 146 137 121 106 94 83 76 65 55 48 43 38 33 34 32 30 28 27 25 24 22 19
108 111 189 229 253 268 217 167 178 175 187 202 184 194 232 194 190 163 159 163 166 162 157 149 137 147 153 151 147 135 121 107 94 85 75 62 52 44 39 31 33 32 30 27 26 24 22 20 17
115 109 141 212 227 252 196 171 194 170 202 173 166 189 234 201 161 144 147 158 170 170 166 159 148 145 142 140 150 144 133 122 108 97 88 74 63 50 39 29 31 32 30 27 25 23 20 18 13
88 92 222 221 208 239 173 175 181 156 138 183 215 219 124 137 136 139 153 177 190 188 183 172 165 163 161 152 147 145 139 133 121 111 103 95 86 67 42 32 33 32 31 27 25 21 19 16 11
88 181 234 217 196 209 180 189 176 153 187 224 240 205 120 142 159 173 183 190 193 194 193 187 178 174 171 165 159 152 147 144 140 136 128 115 101 82 58 41 35 34 32 28 24 20 18 13 6
94 212 261 298 243 183 172 196 181 174 224 216 210 187 153 164 178 190 196 195 196 192 191 189 187 183 179 173 169 167 164 162 161 158 152 141 125 101 76 57 45 40 34 30 21 17 11 3 355
108 285 314 309 263 176 185 181 197 212 226 210 201 164 168 178 190 198 201 198 189 188 197 189 190 187 187 182 179 179 177 177 179 179 173 163 153 140 114 75 45 35 27 19 10 1 352 345 337
170 297 341 342 103 182 169 203 234 244 237 209 152 161 181 190 198 205 204 194 190 198 199 193 190 191 189 186 185 188 188 189 191 189 188 183 173 171 169 161 53 9 1 352 341 333 327 320 315
162 305 304 318 76 166 206 255 247 256 225 196 183 191 196 199 202 200 201 199 200 203 201 194 193 195 191 190 192 193 194 195 194 196 196 194 189 184 184 195 224 265 285 293 295 295 294 292 292
115 336 308 239 201 204 329 286 236 242 162 208 214 211 209 212 207 207 206 205 203 202 198 195 197 196 194 196 198 199 197 196 197 201 202 200 198 195 194 201 223 244 257 268 275 280 278 276 276
34 5 314 268 190 156 165 269 266 227 195 228 227 222 222 222 217 216 211 208 202 197 197 199 200 196 199 199 200 198 198 198 201 204 204 204 204 203 200 205 224 239 245 252 258 261 259 261 266
21 318 286 296 194 168 206 256 273 164 203 238 238 228 227 231 229 222 213 208 202 200 198 198 200 195 198 199 199 200 198 200 204 204 205 206 207 207 205 211 226 235 235 241 250 250 233 257 269
274 268 271 271 227 187 230 256 268 229 215 242 246 237 230 233 234 221 213 207 203 200 200 202 202 198 191 189 189 194 202 208 206 204 206 207 207 208 208 213 225 229 227 234 237 249 249 246 262
244 248 266 265 223 199 244 261 271 265 229 243 245 240 237 239 238 209 204 201 199 200 202 203 203 198 185 179 185 189 207 205 205 209 208 207 207 207 205 209 217 219 217 224 226 236 260 261 252
234 266 274 284 219 214 277 277 273 265 240 237 239 237 236 239 234 211 201 199 204 206 206 205 206 200 197 197 183 177 177 194 205 206 208 208 206 205 206 208 211 215 216 224 227 217 239 259 258
239 229 251 273 319 270 307 297 287 291 256 254 241 237 234 231 234 219 206 206 206 209 208 208 207 203 200 190 169 150 143 154 181 200 206 206 204 203 204 206 209 213 211 220 224 216 221 245 251
261 244 234 277 318 299 353 303 294 291 299 270 251 236 236 233 230 222 210 209 211 214 208 208 204 203 198 188 190 191 199 206 203 195 197 197 200 202 205 208 210 212 213 216 225 222 215 224 249
229 347 216 295 251 299 260 237 287 312 293 282 267 245 238 232 225 224 217 217 216 211 205 205 203 203 198 196 200 203 212 213 185 180 187 194 199 203 205 208 209 211 214 218 222 223 221 220 233
141 61 52 54 71 291 239 196 284 271 253 286 299 284 261 247 232 232 227 217 215 202 201 199 202 206 200 200 204 208 212 203 188 191 195 198 199 203 207 208 209 212 215 219 223 224 226 228 233
93 66 346 337 341 261 197 213 255 261 252 256 278 291 294 274 248 238 227 219 215 205 203 200 202 208 203 203 208 211 213 206 205 201 201 197 199 205 208 206 207 211 217 222 224 223 229 229 233
180 158 180 260 268 289 269 239 258 272 284 270 270 280 291 284 265 250 237 225 220 211 203 201 206 210 204 206 211 212 211 209 212 207 200 200 203 205 197 201 206 211 216 223 223 226 231 231 235
163 204 179 173 282 282 276 288 297 294 320 320 305 299 294 291 282 265 254 234 223 213 207 205 207 210 208 208 209 211 210 211 211 205 202 201 200 196 195 198 203 211 216 220 221 231 234 234 239
175 160 112 153 281 286 288 278 260 296 307 318 320 312 303 303 294 280 265 248 233 221 210 202 207 212 211 207 209 212 212 213 210 203 203 203 199 193 189 196 202 209 214 218 220 231 235 238 244
148 161 165 172 200 229 281 270 239 250 272 290 297 298 297 297 293 285 275 258 236 219 205 205 208 210 211 210 210 213 211 209 208 209 208 203 198 194 196 198 202 210 216 217 222 232 233 240 250
181 194 163 191 244 209 244 271 257 258 274 280 285 292 294 290 288 284 281 273 249 228 214 211 211 214 216 210 209 214 212 206 209 212 209 200 197 195 197 197 203 211 216 216 222 234 239 240 249
Height
1550 1551 1553 1554 1558 1571 1574 1573 1572 1575 1576 1576 1577 1578 1579 1581 1585 1588 1582 1582 1584 1587 1589 1591 1592 1593 1593 1593 1592 1592 1591 1590 1589 1588 1587 1586 1585 1583 1581 1580 1578 1576 1574 1573 1571 1569 1567 1565 1563
1551 1552 1555 1555 1566 1578 1575 1570 1573 1573 1573 1575 1576 1576 1577 1577 1578 1578 1578 1580 1583 1586 1588 1590 1591 1591 1592 1592 1591 1591 1590 1590 1589 1588 1586 1585 1584 1582 1581 1579 1578 1576 1574 1572 1571 1569 1567 1565 1563
1552 1553 1555 1558 1568 1575 1569 1569 1571 1572 1573 1574 1575 1575 1575 1574 1574 1575 1576 1579 1582 1584 1587 1588 1590 1590 1591 1591 1590 1590 1590 1589 1588 1587 1585 1584 1583 1582 1580 1579 1577 1576 1574 1572 1570 1568 1566 1564 1562
1554 1555 1556 1563 1567 1568 1568 1568 1569 1571 1573 1573 1574 1574 1573 1573 1573 1573 1575 1578 1580 1583 1585 1587 1588 1589 1589 1590 1589 1589 1589 1588 1587 1586 1584 1583 1582 1580 1579 1578 1576 1575 1573 1571 1569 1567 1565 1563 1561
1554 1555 1562 1570 1567 1567 1567 1567 1568 1569 1570 1571 1572 1572 1570 1571 1571 1572 1574 1576 1579 1581 1584 1585 1587 1587 1588 1588 1588 1588 1587 1587 1585 1584 1583 1582 1581 1579 1578 1577 1575 1574 1572 1570 1568 1567 1564 1563 1561
1555 1556 1569 1572 1567 1566 1565 1565 1567 1568 1569 1570 1571 1570 1567 1568 1569 1571 1573 1576 1578 1580 1582 1584 1585 1586 1586 1587 1587 1587 1586 1585 1584 1583 1582 1581 1580 1578 1577 1575 1574 1572 1571 1569 1568 1566 1564 1562 1560
1556 1561 1567 1566 1568 1566 1563 1563 1564 1564 1566 1566 1567 1568 1564 1565 1567 1570 1572 1575 1576 1578 1580 1582 1583 1584 1585 1585 1585 1585 1584 1583 1582 1581 1581 1579 1578 1577 1575 1574 1573 1571 1570 1568 1567 1565 1563 1562 1560
1554 1560 1566 1569 1568 1563 1559 1561 1561 1562 1563 1564 1565 1564 1562 1562 1565 1567 1570 1572 1574 1576 1578 1579 1581 1582 1583 1583 1583 1583 1583 1582 1581 1580 1579 1578 1577 1575 1574 1573 1571 1570 1568 1567 1566 1564 1562 1560 1558
1554 1562 1566 1564 1565 1558 1556 1558 1559 1560 1560 1560 1560 1560 1560 1561 1562 1564 1566 1568 1569 1572 1574 1576 1578 1580 1581 1581 1581 1581 1581 1580 1579 1578 1577 1576 1575 1574 1572 1571 1569 1568 1567 1565 1564 1562 1560 1558 1557
1554 1562 1558 1554 1554 1553 1554 1554 1556 1557 1557 1556 1556 1556 1557 1558 1559 1560 1561 1562 1564 1567 1570 1573 1575 1577 1578 1578 1579 1579 1578 1578 1577 1576 1575 1574 1573 1572 1570 1569 1567 1566 1565 1563 1561 1559 1557 1555 1553
1553 1555 1553 1552 1552 1551 1552 1553 1554 1554 1553 1549 1549 1550 1552 1554 1555 1556 1557 1559 1561 1564 1567 1569 1571 1573 1574 1575 1576 1576 1576 1575 1574 1573 1572 1571 1570 1569 1568 1566 1565 1564 1562 1560 1558 1556 1554 1551 1549
1554 1553 1553 1551 1550 1550 1550 1550 1551 1548 1543 1545 1546 1548 1549 1549 1550 1551 1552 1554 1557 1560 1563 1566 1567 1569 1571 1572 1572 1572 1572 1572 1571 1570 1569 1568 1567 1566 1565 1563 1562 1560 1559 1557 1555 1552 1550 1547 1544
1553 1552 1552 1550 1550 1549 1549 1548 1547 1541 1540 1543 1543 1543 1543 1544 1545 1547 1550 1552 1553 1555 1558 1561 1563 1565 1566 1567 1568 1568 1569 1568 1568 1567 1566 1565 1564 1563 1561 1560 1558 1556 1554 1552 1550 1547 1545 1542 1540
1553 1552 1551 1550 1549 1548 1548 1547 1545 1533 1537 1537 1537 1537 1538 1539 1540 1542 1543 1545 1547 1550 1553 1556 1558 1560 1561 1562 1563 1564 1565 1564 1564 1563 1562 1561 1560 1559 1558 1556 1554 1552 1550 1547 1545 1542 1540 1537 1534
1553 1552 1550 1548 1548 1548 1548 1545 1536 1528 1532 1532 1531 1532 1532 1534 1535 1536 1537 1539 1542 1545 1548 1550 1553 1555 1556 1557 1558 1559 1560 1560 1559 1559 1558 1557 1556 1555 1553 1551 1549 1547 1545 1542 1540 1537 1534 1532 1529
1553 1555 1554 1547 1547 1547 1551 1544 1524 1526 1526 1525 1525 1525 1526 1527 1528 1530 1532 1534 1537 1539 1542 1545 1547 1548 1550 1552 1553 1554 1554 1554 1554 1554 1553 1552 1551 1550 1548 1547 1545 1542 1540 1537 1535 1532 1530 1527 1524
1557 1559 1554 1549 1546 1547 1549 1540 1522 1522 1521 1519 1519 1519 1519 1520 1521 1523 1525 1528 1530 1533 1536 1538 1540 1542 1544 1546 1547 1548 1548 1549 1549 1548 1548 1547 1546 1545 1543 1542 1540 1537 1535 1533 1530 1527 1525 1521 1518
1555 1556 1555 1551 1544 1547 1547 1536 1518 1518 1518 1514 1512 1512 1512 1511 1512 1516 1519 1521 1524 1526 1529 1531 1533 1535 1538 1540 1541 1541 1541 1542 1542 1542 1542 1541 1540 1539 1538 1536 1535 1532 1530 1528 1525 1523 1520 1517 1513
1551 1552 1554 1548 1541 1545 1541 1530 1513 1508 1510 1505 1502 1502 1502 1502 1505 1509 1512 1514 1517 1518 1520 1522 1524 1526 1529 1530 1531 1532 1532 1535 1535 1536 1536 1535 1534 1533 1532 1531 1529 1527 1525 1523 1521 1518 1516 1513 1509
1552 1553 1552 1545 1540 1543 1538 1526 1507 1499 1497 1493 1492 1491 1492 1494 1497 1501 1504 1506 1508 1509 1511 1513 1515 1517 1519 1521 1523 1525 1526 1527 1529 1529 1529 1528 1528 1527 1526 1525 1523 1521 1519 1518 1515 1513 1510 1508 1505
1549 1551 1548 1546 1540 1540 1540 1521 1505 1493 1489 1486 1484 1484 1485 1487 1489 1493 1496 1498 1500 1501 1503 1504 1507 1509 1511 1513 1516 1517 1518 1518 1519 1520 1521 1521 1521 1520 1519 1518 1517 1516 1514 1512 1510 1508 1505 1503 1501
1551 1543 1543 1542 1546 1548 1542 1537 1504 1496 1489 1482 1478 1478 1478 1480 1483 1486 1488 1490 1492 1494 1496 1498 1499 1501 1503 1505 1506 1506 1506 1507 1509 1512 1514 1514 1513 1513 1512 1512 1511 1509 1508 1506 1505 1503 1500 1497 1495
1543 1540 1542 1543 1546 1550 1545 1545 1513 1500 1490 1478 1473 1472 1473 1476 1478 1480 1482 1484 1486 1488 1489 1490 1492 1493 1494 1495 1496 1497 1498 1499 1502 1504 1505 1506 1505 1505 1505 1504 1503 1502 1501 1500 1498 1497 1494 1492 1489
1540 1542 1546 1552 1554 1554 1543 1548 1523 1500 1487 1479 1472 1471 1471 1472 1474 1475 1477 1478 1479 1481 1482 1482 1483 1484 1485 1486 1486 1487 1488 1490 1492 1494 1496 1497 1497 1497 1497 1497 1496 1495 1494 1493 1492 1490 1488 1486 1483
1542 1549 1556 1552 1553 1548 1540 1542 1519 1486 1480 1478 1474 1470 1469 1469 1469 1470 1471 1472 1473 1474 1474 1475 1475 1476 1476 1476 1477 1477 1479 1480 1482 1484 1487 1488 1488 1488 1489 1489 1488 1488 1487 1486 1485 1483 1481 1479 1477
1544 1547 1556 1556 1555 1546 1537 1535 1506 1480 1477 1475 1472 1470 1467 1467 1466 1466 1467 1467 1468 1468 1468 1468 1468 1468 1468 1468 1468 1469 1470 1471 1472 1475 1477 1478 1479 1481 1482 1481 1481 1480 1480 1479 1478 1476 1474 1472 1469
1544 1547 1547 1554 1553 1555 1540 1525 1503 1478 1474 1471 1469 1468 1466 1465 1464 1463 1463 1463 1463 1462 1462 1462 1461 1461 1461 1461 1461 1460 1461 1461 1462 1465 1467 1469 1470 1472 1473 1473 1473 1473 1472 1471 1470 1468 1467 1465 1462
1539 1544 1553 1552 1554 1551 1540 1528 1510 1486 1476 1471 1468 1466 1464 1462 1461 1459 1459 1458 1457 1456 1456 1455 1454 1454 1454 1453 1452 1452 1452 1452 1453 1455 1456 1458 1461 1462 1463 1464 1464 1465 1464 1463 1462 1461 1459 1457 1454
1542 1544 1545 1551 1554 1554 1546 1523 1493 1485 1476 1473 1468 1465 1462 1460 1457 1455 1453 1452 1450 1449 1448 1448 1447 1446 1446 1445 1444 1443 1443 1443 1443 1444 1446 1448 1451 1452 1454 1455 1456 1456 1456 1456 1454 1453 1451 1448 1446
1537 1538 1543 1548 1545 1552 1551 1516 1482 1477 1471 1470 1467 1463 1460 1457 1454 1450 1447 1445 1443 1442 1441 1441 1440 1439 1438 1437 1436 1434 1433 1433 1432 1433 1434 1437 1440 1442 1444 1446 1447 1448 1448 1448 1446 1445 1443 1440 1438